Powrót do katalogu

DELTA 1 DEB

AktywnySSO
NORAD 21602·DEBRIS·🇺🇸 United States

Wystrzelony Jun 12, 1975 z Vandenberg Space Force Base

Loading…

Następne Przeloty (najbliższe 24 godziny)

TLE

ŚwieżeSource: Space-Track

Epoka: Sep 14, 2026, 00:42 UTC

1 21602U 75052HW  26257.02969975  .00001520  00000-0  20616-2 0  9994
2 21602  99.6379 286.8559 0073219 301.3981  87.4610 13.59973485715278

Śledź DELTA 1 DEB w czasie rzeczywistym z AllMySat

Download on the App Store